Year,Month,Day,Hour,Minute,Value (Times are PST for temperature in C)
2014,09,16,00,00,13.10
2014,09,16,00,01,13.10
2014,09,16,00,02,13.00
2014,09,16,00,03,13.00
2014,09,16,00,04,12.90
2014,09,16,00,05,12.90
2014,09,16,00,06,12.90
2014,09,16,00,07,12.90
2014,09,16,00,08,12.80
2014,09,16,00,09,12.80
2014,09,16,00,10,12.80
2014,09,16,00,11,12.70
2014,09,16,00,12,12.70
2014,09,16,00,13,12.60
2014,09,16,00,14,12.60
2014,09,16,00,15,12.50
2014,09,16,00,16,12.50
2014,09,16,00,17,12.50
2014,09,16,00,18,12.40
2014,09,16,00,19,12.40
2014,09,16,00,20,12.30
2014,09,16,00,21,12.30
2014,09,16,00,22,12.30
2014,09,16,00,23,12.20
2014,09,16,00,24,12.20
2014,09,16,00,25,12.20
2014,09,16,00,26,12.20
2014,09,16,00,27,12.20
2014,09,16,00,28,12.20
2014,09,16,00,29,12.10
2014,09,16,00,30,12.10
2014,09,16,00,31,12.10
2014,09,16,00,32,12.00
2014,09,16,00,33,12.00
2014,09,16,00,34,12.00
2014,09,16,00,35,11.90
2014,09,16,00,36,11.90
2014,09,16,00,37,11.90
2014,09,16,00,38,11.90
2014,09,16,00,39,11.80
2014,09,16,00,40,11.80
2014,09,16,00,41,11.80
2014,09,16,00,42,11.80
2014,09,16,00,43,11.70
2014,09,16,00,44,11.70
2014,09,16,00,45,11.70
2014,09,16,00,46,11.70
2014,09,16,00,47,11.70
2014,09,16,00,48,11.70
2014,09,16,00,49,11.70
2014,09,16,00,50,11.60
2014,09,16,00,51,11.60
2014,09,16,00,52,11.60
2014,09,16,00,53,11.60
2014,09,16,00,54,11.50
2014,09,16,00,55,11.50
2014,09,16,00,56,11.50
2014,09,16,00,57,11.50
2014,09,16,00,58,11.50
2014,09,16,00,59,11.50
2014,09,16,01,00,11.50
2014,09,16,01,01,11.50
2014,09,16,01,02,11.50
2014,09,16,01,03,11.50
2014,09,16,01,04,11.50
2014,09,16,01,05,11.50
2014,09,16,01,06,11.60
2014,09,16,01,07,11.60
2014,09,16,01,08,11.60
2014,09,16,01,09,11.60
2014,09,16,01,10,11.70
2014,09,16,01,11,11.70
2014,09,16,01,12,11.70
2014,09,16,01,13,11.70
2014,09,16,01,14,11.70
2014,09,16,01,15,11.70
2014,09,16,01,16,11.80
2014,09,16,01,17,11.80
2014,09,16,01,18,11.80
2014,09,16,01,19,11.80
2014,09,16,01,20,11.80
2014,09,16,01,21,11.80
2014,09,16,01,22,11.80
2014,09,16,01,23,11.80
2014,09,16,01,24,11.80
2014,09,16,01,25,11.80
2014,09,16,01,26,11.80
2014,09,16,01,27,11.70
2014,09,16,01,28,11.70
2014,09,16,01,29,11.70
2014,09,16,01,30,11.70
2014,09,16,01,31,11.60
2014,09,16,01,32,11.60
2014,09,16,01,33,11.60
2014,09,16,01,34,11.60
2014,09,16,01,35,11.50
2014,09,16,01,36,11.50
2014,09,16,01,37,11.50
2014,09,16,01,38,11.50
2014,09,16,01,39,11.60
2014,09,16,01,40,11.60
2014,09,16,01,41,11.60
2014,09,16,01,42,11.60
2014,09,16,01,43,11.60
2014,09,16,01,44,11.70
2014,09,16,01,45,11.70
2014,09,16,01,46,11.70
2014,09,16,01,47,11.70
2014,09,16,01,48,11.60
2014,09,16,01,49,11.60
2014,09,16,01,50,11.60
2014,09,16,01,51,11.50
2014,09,16,01,52,11.50
2014,09,16,01,53,11.50
2014,09,16,01,54,11.50
2014,09,16,01,55,11.40
2014,09,16,01,56,11.50
2014,09,16,01,57,11.50
2014,09,16,01,58,11.60
2014,09,16,01,59,11.60
2014,09,16,02,00,11.50
2014,09,16,02,01,11.50
2014,09,16,02,02,11.50
2014,09,16,02,03,11.40
2014,09,16,02,04,11.40
2014,09,16,02,05,11.40
2014,09,16,02,06,11.40
2014,09,16,02,07,11.30
2014,09,16,02,08,11.30
2014,09,16,02,09,11.30
2014,09,16,02,10,11.30
2014,09,16,02,11,11.30
2014,09,16,02,12,11.20
2014,09,16,02,13,11.20
2014,09,16,02,14,11.20
2014,09,16,02,15,11.20
2014,09,16,02,16,11.10
2014,09,16,02,17,11.10
2014,09,16,02,18,11.10
2014,09,16,02,19,11.10
2014,09,16,02,20,11.10
2014,09,16,02,21,11.20
2014,09,16,02,22,11.30
2014,09,16,02,23,11.30
2014,09,16,02,24,11.30
2014,09,16,02,25,11.20
2014,09,16,02,26,11.20
2014,09,16,02,27,11.20
2014,09,16,02,28,11.10
2014,09,16,02,29,11.10
2014,09,16,02,30,11.00
2014,09,16,02,31,10.90
2014,09,16,02,32,10.90
2014,09,16,02,33,10.90
2014,09,16,02,34,10.80
2014,09,16,02,35,10.80
2014,09,16,02,36,10.80
2014,09,16,02,37,10.80
2014,09,16,02,38,10.80
2014,09,16,02,39,10.80
2014,09,16,02,40,10.80
2014,09,16,02,41,10.80
2014,09,16,02,42,10.80
2014,09,16,02,43,10.80
2014,09,16,02,44,10.80
2014,09,16,02,45,10.80
2014,09,16,02,46,10.80
2014,09,16,02,47,10.80
2014,09,16,02,48,10.90
2014,09,16,02,49,10.90
2014,09,16,02,50,10.90
2014,09,16,02,51,10.90
2014,09,16,02,52,10.90
2014,09,16,02,53,10.90
2014,09,16,02,54,10.90
2014,09,16,02,55,10.90
2014,09,16,02,56,10.90
2014,09,16,02,57,10.90
2014,09,16,02,58,10.90
2014,09,16,02,59,10.90
2014,09,16,03,00,10.90
2014,09,16,03,01,11.00
2014,09,16,03,02,11.00
2014,09,16,03,03,11.10
2014,09,16,03,04,11.20
2014,09,16,03,05,11.30
2014,09,16,03,06,11.30
2014,09,16,03,07,11.20
2014,09,16,03,08,11.20
2014,09,16,03,09,11.20
2014,09,16,03,10,11.10
2014,09,16,03,11,11.10
2014,09,16,03,12,11.10
2014,09,16,03,13,11.00
2014,09,16,03,14,11.00
2014,09,16,03,15,11.00
2014,09,16,03,16,10.90
2014,09,16,03,17,10.90
2014,09,16,03,18,10.80
2014,09,16,03,19,10.80
2014,09,16,03,20,10.80
2014,09,16,03,21,10.80
2014,09,16,03,22,10.90
2014,09,16,03,23,11.00
2014,09,16,03,24,11.10
2014,09,16,03,25,11.30
2014,09,16,03,26,11.40
2014,09,16,03,27,11.40
2014,09,16,03,28,11.30
2014,09,16,03,29,11.30
2014,09,16,03,30,11.20
2014,09,16,03,31,11.20
2014,09,16,03,32,11.10
2014,09,16,03,33,11.00
2014,09,16,03,34,11.00
2014,09,16,03,35,10.90
2014,09,16,03,36,10.90
2014,09,16,03,37,10.90
2014,09,16,03,38,10.90
2014,09,16,03,39,10.90
2014,09,16,03,40,10.90
2014,09,16,03,41,10.90
2014,09,16,03,42,10.90
2014,09,16,03,43,10.90
2014,09,16,03,44,10.90
2014,09,16,03,45,10.80
2014,09,16,03,46,10.80
2014,09,16,03,47,10.80
2014,09,16,03,48,10.80
2014,09,16,03,49,10.80
2014,09,16,03,50,10.90
2014,09,16,03,51,10.90
2014,09,16,03,52,10.90
2014,09,16,03,53,11.00
2014,09,16,03,54,11.10
2014,09,16,03,55,11.10
2014,09,16,03,56,11.10
2014,09,16,03,57,11.10
2014,09,16,03,58,11.00
2014,09,16,03,59,11.00
2014,09,16,04,00,10.90
2014,09,16,04,01,11.00
2014,09,16,04,02,11.00
2014,09,16,04,03,11.10
2014,09,16,04,04,11.00
2014,09,16,04,05,11.00
2014,09,16,04,06,10.90
2014,09,16,04,07,10.90
2014,09,16,04,08,10.80
2014,09,16,04,09,10.70
2014,09,16,04,10,10.70
2014,09,16,04,11,10.60
2014,09,16,04,12,10.60
2014,09,16,04,13,10.50
2014,09,16,04,14,10.50
2014,09,16,04,15,10.40
2014,09,16,04,16,10.40
2014,09,16,04,17,10.40
2014,09,16,04,18,10.40
2014,09,16,04,19,10.40
2014,09,16,04,20,10.30
2014,09,16,04,21,10.30
2014,09,16,04,22,10.30
2014,09,16,04,23,10.30
2014,09,16,04,24,10.30
2014,09,16,04,25,10.30
2014,09,16,04,26,10.30
2014,09,16,04,27,10.20
2014,09,16,04,28,10.20
2014,09,16,04,29,10.20
2014,09,16,04,30,10.20
2014,09,16,04,31,10.20
2014,09,16,04,32,10.20
2014,09,16,04,33,10.20
2014,09,16,04,34,10.20
2014,09,16,04,35,10.10
2014,09,16,04,36,10.10
2014,09,16,04,37,10.10
2014,09,16,04,38,10.10
2014,09,16,04,39,10.10
2014,09,16,04,40,10.10
2014,09,16,04,41,10.10
2014,09,16,04,42,10.10
2014,09,16,04,43,10.10
2014,09,16,04,44,10.10
2014,09,16,04,45,10.10
2014,09,16,04,46,10.10
2014,09,16,04,47,10.10
2014,09,16,04,48,10.20
2014,09,16,04,49,10.20
2014,09,16,04,50,10.20
2014,09,16,04,51,10.10
2014,09,16,04,52,10.10
2014,09,16,04,53,10.10
2014,09,16,04,54,10.20
2014,09,16,04,55,10.20
2014,09,16,04,56,10.20
2014,09,16,04,57,10.20
2014,09,16,04,58,10.20
2014,09,16,04,59,10.20
2014,09,16,05,00,10.20
2014,09,16,05,01,10.20
2014,09,16,05,02,10.30
2014,09,16,05,03,10.30
2014,09,16,05,04,10.30
2014,09,16,05,05,10.30
2014,09,16,05,06,10.30
2014,09,16,05,07,10.20
2014,09,16,05,08,10.20
2014,09,16,05,09,10.30
2014,09,16,05,10,10.30
2014,09,16,05,11,10.40
2014,09,16,05,12,10.40
2014,09,16,05,13,10.40
2014,09,16,05,14,10.40
2014,09,16,05,15,10.40
2014,09,16,05,16,10.30
2014,09,16,05,17,10.30
2014,09,16,05,18,10.30
2014,09,16,05,19,10.30
2014,09,16,05,20,10.20
2014,09,16,05,21,10.20
2014,09,16,05,22,10.20
2014,09,16,05,23,10.10
2014,09,16,05,24,10.10
2014,09,16,05,25,10.10
2014,09,16,05,26,10.20
2014,09,16,05,27,10.20
2014,09,16,05,28,10.20
2014,09,16,05,29,10.30
2014,09,16,05,30,10.30
2014,09,16,05,31,10.20
2014,09,16,05,32,10.20
2014,09,16,05,33,10.20
2014,09,16,05,34,10.20
2014,09,16,05,35,10.10
2014,09,16,05,36,10.10
2014,09,16,05,37,10.10
2014,09,16,05,38,10.00
2014,09,16,05,39,10.00
2014,09,16,05,40,10.00
2014,09,16,05,41,10.00
2014,09,16,05,42,10.00
2014,09,16,05,43,10.00
2014,09,16,05,44,9.90
2014,09,16,05,45,9.90
2014,09,16,05,46,9.90
2014,09,16,05,47,9.90
2014,09,16,05,48,9.90
2014,09,16,05,49,9.90
2014,09,16,05,50,9.90
2014,09,16,05,51,9.90
2014,09,16,05,52,9.90
2014,09,16,05,53,9.90
2014,09,16,05,54,9.80
2014,09,16,05,55,9.80
2014,09,16,05,56,9.80
2014,09,16,05,57,9.80
2014,09,16,05,58,9.80
2014,09,16,05,59,9.80
2014,09,16,06,00,9.80
2014,09,16,06,01,9.80
2014,09,16,06,02,9.80
2014,09,16,06,03,9.90
2014,09,16,06,04,9.90
2014,09,16,06,05,9.90
2014,09,16,06,06,9.90
2014,09,16,06,07,9.90
2014,09,16,06,08,9.90
2014,09,16,06,09,9.80
2014,09,16,06,10,9.80
2014,09,16,06,11,9.80
2014,09,16,06,12,9.80
2014,09,16,06,13,9.80
2014,09,16,06,14,9.70
2014,09,16,06,15,9.70
2014,09,16,06,16,9.70
2014,09,16,06,17,9.70
2014,09,16,06,18,9.70
2014,09,16,06,19,9.70
2014,09,16,06,20,9.80
2014,09,16,06,21,10.00
2014,09,16,06,22,10.20
2014,09,16,06,23,10.30
2014,09,16,06,24,10.40
2014,09,16,06,25,10.40
2014,09,16,06,26,10.40
2014,09,16,06,27,10.30
2014,09,16,06,28,10.20
2014,09,16,06,29,10.20
2014,09,16,06,30,10.10
2014,09,16,06,31,10.00
2014,09,16,06,32,10.00
2014,09,16,06,33,9.90
2014,09,16,06,34,9.90
2014,09,16,06,35,9.80
2014,09,16,06,36,9.80
2014,09,16,06,37,9.80
2014,09,16,06,38,9.80
2014,09,16,06,39,9.70
2014,09,16,06,40,9.70
2014,09,16,06,41,9.70
2014,09,16,06,42,9.70
2014,09,16,06,43,9.70
2014,09,16,06,44,9.70
2014,09,16,06,45,9.70
2014,09,16,06,46,9.70
2014,09,16,06,47,9.80
2014,09,16,06,48,9.80
2014,09,16,06,49,9.80
2014,09,16,06,50,9.80
2014,09,16,06,51,9.70
2014,09,16,06,52,9.70
2014,09,16,06,53,9.70
2014,09,16,06,54,9.70
2014,09,16,06,55,9.70
2014,09,16,06,56,9.70
2014,09,16,06,57,9.70
2014,09,16,06,58,9.70
2014,09,16,06,59,9.70
2014,09,16,07,00,9.70
2014,09,16,07,01,9.60
2014,09,16,07,02,9.60
2014,09,16,07,03,9.60
2014,09,16,07,04,9.70
2014,09,16,07,05,9.70
2014,09,16,07,06,9.80
2014,09,16,07,07,9.90
2014,09,16,07,08,10.00
2014,09,16,07,09,10.10
2014,09,16,07,10,10.20
2014,09,16,07,11,10.30
2014,09,16,07,12,10.30
2014,09,16,07,13,10.40
2014,09,16,07,14,10.50
2014,09,16,07,15,10.60
2014,09,16,07,16,10.70
2014,09,16,07,17,10.80
2014,09,16,07,18,10.90
2014,09,16,07,19,10.90
2014,09,16,07,20,10.90
2014,09,16,07,21,10.90
2014,09,16,07,22,10.80
2014,09,16,07,23,10.70
2014,09,16,07,24,10.70
2014,09,16,07,25,10.60
2014,09,16,07,26,10.60
2014,09,16,07,27,10.60
2014,09,16,07,28,10.60
2014,09,16,07,29,10.60
2014,09,16,07,30,10.60
2014,09,16,07,31,10.60
2014,09,16,07,32,10.60
2014,09,16,07,33,10.60
2014,09,16,07,34,10.60
2014,09,16,07,35,10.60
2014,09,16,07,36,10.60
2014,09,16,07,37,10.50
2014,09,16,07,38,10.50
2014,09,16,07,39,10.40
2014,09,16,07,40,10.40
2014,09,16,07,41,10.40
2014,09,16,07,42,10.30
2014,09,16,07,43,10.30
2014,09,16,07,44,10.30
2014,09,16,07,45,10.30
2014,09,16,07,46,10.30
2014,09,16,07,47,10.30
2014,09,16,07,48,10.30
2014,09,16,07,49,10.40
2014,09,16,07,50,10.40
2014,09,16,07,51,10.50
2014,09,16,07,52,10.60
2014,09,16,07,53,10.60
2014,09,16,07,54,10.70
2014,09,16,07,55,10.70
2014,09,16,07,56,10.70
2014,09,16,07,57,10.70
2014,09,16,07,58,10.70
2014,09,16,07,59,10.80
2014,09,16,08,00,10.80
2014,09,16,08,01,10.80
2014,09,16,08,02,10.90
2014,09,16,08,03,11.00
2014,09,16,08,04,11.10
2014,09,16,08,05,11.10
2014,09,16,08,06,11.20
2014,09,16,08,07,11.30
2014,09,16,08,08,11.40
2014,09,16,08,09,11.40
2014,09,16,08,10,11.40
2014,09,16,08,11,11.40
2014,09,16,08,12,11.50
2014,09,16,08,13,11.50
2014,09,16,08,14,11.60
2014,09,16,08,15,11.70
2014,09,16,08,16,11.70
2014,09,16,08,17,11.80
2014,09,16,08,18,11.80
2014,09,16,08,19,11.90
2014,09,16,08,20,11.90
2014,09,16,08,21,12.00
2014,09,16,08,22,12.00
2014,09,16,08,23,12.10
2014,09,16,08,24,12.20
2014,09,16,08,25,12.30
2014,09,16,08,26,12.30
2014,09,16,08,27,12.40
2014,09,16,08,28,12.40
2014,09,16,08,29,12.40
2014,09,16,08,30,12.50
2014,09,16,08,31,12.50
2014,09,16,08,32,12.60
2014,09,16,08,33,12.60
2014,09,16,08,34,12.70
2014,09,16,08,35,12.70
2014,09,16,08,36,12.80
2014,09,16,08,37,12.90
2014,09,16,08,38,13.00
2014,09,16,08,39,13.00
2014,09,16,08,40,13.10
2014,09,16,08,41,13.20
2014,09,16,08,42,13.20
2014,09,16,08,43,13.30
2014,09,16,08,44,13.30
2014,09,16,08,45,13.40
2014,09,16,08,46,13.60
2014,09,16,08,47,13.70
2014,09,16,08,48,13.80
2014,09,16,08,49,13.90
2014,09,16,08,50,14.00
2014,09,16,08,51,14.20
2014,09,16,08,52,14.30
2014,09,16,08,53,14.50
2014,09,16,08,54,14.60
2014,09,16,08,55,14.70
2014,09,16,08,56,14.90
2014,09,16,08,57,15.00
2014,09,16,08,58,15.10
2014,09,16,08,59,15.30
2014,09,16,09,00,15.30
2014,09,16,09,01,15.40
2014,09,16,09,02,15.50
2014,09,16,09,03,15.50
2014,09,16,09,04,15.60
2014,09,16,09,05,15.70
2014,09,16,09,06,15.80
2014,09,16,09,07,15.80
2014,09,16,09,08,15.90
2014,09,16,09,09,16.00
2014,09,16,09,10,16.10
2014,09,16,09,11,16.30
2014,09,16,09,12,16.40
2014,09,16,09,13,16.60
2014,09,16,09,14,16.70
2014,09,16,09,15,16.80
2014,09,16,09,16,17.00
2014,09,16,09,17,17.10
2014,09,16,09,18,17.20
2014,09,16,09,19,17.30
2014,09,16,09,20,17.50
2014,09,16,09,21,17.60
2014,09,16,09,22,17.70
2014,09,16,09,23,17.80
2014,09,16,09,24,18.00
2014,09,16,09,25,18.10
2014,09,16,09,26,18.20
2014,09,16,09,27,18.30
2014,09,16,09,28,18.40
2014,09,16,09,29,18.50
2014,09,16,09,30,18.60
2014,09,16,09,31,18.70
2014,09,16,09,32,18.80
2014,09,16,09,33,18.80
2014,09,16,09,34,18.80
2014,09,16,09,35,18.80
2014,09,16,09,36,18.80
2014,09,16,09,37,18.80
2014,09,16,09,38,18.70
2014,09,16,09,39,18.70
2014,09,16,09,40,18.70
2014,09,16,09,41,18.70
2014,09,16,09,42,18.60
2014,09,16,09,43,18.60
2014,09,16,09,44,18.60
2014,09,16,09,45,18.60
2014,09,16,09,46,18.50
2014,09,16,09,47,18.50
2014,09,16,09,48,18.50
2014,09,16,09,49,18.50
2014,09,16,09,50,18.40
2014,09,16,09,51,18.40
2014,09,16,09,52,18.40
2014,09,16,09,53,18.40
2014,09,16,09,54,18.40
2014,09,16,09,55,18.40
2014,09,16,09,56,18.40
2014,09,16,09,57,18.40
2014,09,16,09,58,18.40
2014,09,16,09,59,18.40
2014,09,16,10,00,18.40
2014,09,16,10,01,18.40
2014,09,16,10,02,18.40
2014,09,16,10,03,18.50
2014,09,16,10,04,18.50
2014,09,16,10,05,18.50
2014,09,16,10,06,18.50
2014,09,16,10,07,18.50
2014,09,16,10,08,18.50
2014,09,16,10,09,18.50
2014,09,16,10,10,18.50
2014,09,16,10,11,18.40
2014,09,16,10,12,18.40
2014,09,16,10,13,18.30
2014,09,16,10,14,18.30
2014,09,16,10,15,18.30
2014,09,16,10,16,18.30
2014,09,16,10,17,18.30
2014,09,16,10,18,18.30
2014,09,16,10,19,18.30
2014,09,16,10,20,18.30
2014,09,16,10,21,18.30
2014,09,16,10,22,18.30
2014,09,16,10,23,18.30
2014,09,16,10,24,18.30
2014,09,16,10,25,18.30
2014,09,16,10,26,18.30
2014,09,16,10,27,18.30
2014,09,16,10,28,18.30
2014,09,16,10,29,18.40
2014,09,16,10,30,18.40
2014,09,16,10,31,18.40
2014,09,16,10,32,18.50
2014,09,16,10,33,18.50
2014,09,16,10,34,18.50
2014,09,16,10,35,18.50
2014,09,16,10,36,18.50
2014,09,16,10,37,18.50
2014,09,16,10,38,18.60
2014,09,16,10,39,18.60
2014,09,16,10,40,18.60
2014,09,16,10,41,18.70
2014,09,16,10,42,18.70
2014,09,16,10,43,18.70
2014,09,16,10,44,18.70
2014,09,16,10,45,18.70
2014,09,16,10,46,18.70
2014,09,16,10,47,18.70
2014,09,16,10,48,18.70
2014,09,16,10,49,18.70
2014,09,16,10,50,18.80
2014,09,16,10,51,18.80
2014,09,16,10,52,18.80
2014,09,16,10,53,18.70
2014,09,16,10,54,18.70
2014,09,16,10,55,18.70
2014,09,16,10,56,18.60
2014,09,16,10,57,18.60
2014,09,16,10,58,18.60
2014,09,16,10,59,18.60
2014,09,16,11,00,18.60
2014,09,16,11,01,18.60
2014,09,16,11,02,18.70
2014,09,16,11,03,18.80
2014,09,16,11,04,18.80
2014,09,16,11,05,18.90
2014,09,16,11,06,18.90
2014,09,16,11,07,19.00
2014,09,16,11,08,19.10
2014,09,16,11,09,19.10
2014,09,16,11,10,19.10
2014,09,16,11,11,19.20
2014,09,16,11,12,19.20
2014,09,16,11,13,19.30
2014,09,16,11,14,19.30
2014,09,16,11,15,19.40
2014,09,16,11,16,19.40
2014,09,16,11,17,19.40
2014,09,16,11,18,19.40
2014,09,16,11,19,19.40
2014,09,16,11,20,19.40
2014,09,16,11,21,19.40
2014,09,16,11,22,19.40
2014,09,16,11,23,19.40
2014,09,16,11,24,19.30
2014,09,16,11,25,19.30
2014,09,16,11,26,19.30
2014,09,16,11,27,19.30
2014,09,16,11,28,19.30
2014,09,16,11,29,19.30
2014,09,16,11,30,19.20
2014,09,16,11,31,19.20
2014,09,16,11,32,19.20
2014,09,16,11,33,19.20
2014,09,16,11,34,19.10
2014,09,16,11,35,19.10
2014,09,16,11,36,19.10
2014,09,16,11,37,19.10
2014,09,16,11,38,19.10
2014,09,16,11,39,19.10
2014,09,16,11,40,19.10
2014,09,16,11,41,19.00
2014,09,16,11,42,18.90
2014,09,16,11,43,18.90
2014,09,16,11,44,19.00
2014,09,16,11,45,18.90
2014,09,16,11,46,18.90
2014,09,16,11,47,18.90
2014,09,16,11,48,18.90
2014,09,16,11,49,18.90
2014,09,16,11,50,18.90
2014,09,16,11,51,18.90
2014,09,16,11,52,18.90
2014,09,16,11,53,18.90
2014,09,16,11,54,18.90
2014,09,16,11,55,18.90
2014,09,16,11,56,19.00
2014,09,16,11,57,19.00
2014,09,16,11,58,19.10
2014,09,16,11,59,19.10
2014,09,16,12,00,19.10
2014,09,16,12,01,19.20
2014,09,16,12,02,19.20
2014,09,16,12,03,19.30
2014,09,16,12,04,19.30
2014,09,16,12,05,19.30
2014,09,16,12,06,19.40
2014,09,16,12,07,19.40
2014,09,16,12,08,19.50
2014,09,16,12,09,19.50
2014,09,16,12,10,19.60
2014,09,16,12,11,19.60
2014,09,16,12,12,19.60
2014,09,16,12,13,19.60
2014,09,16,12,14,19.70
2014,09,16,12,15,19.70
2014,09,16,12,16,19.70
2014,09,16,12,17,19.60
2014,09,16,12,18,19.70
2014,09,16,12,19,19.60
2014,09,16,12,20,19.60
2014,09,16,12,21,19.50
2014,09,16,12,22,19.50
2014,09,16,12,23,19.40
2014,09,16,12,24,19.40
2014,09,16,12,25,19.40
2014,09,16,12,26,19.40
2014,09,16,12,27,19.40
2014,09,16,12,28,19.40
2014,09,16,12,29,19.50
2014,09,16,12,30,19.60
2014,09,16,12,31,19.70
2014,09,16,12,32,19.80
2014,09,16,12,33,19.90
2014,09,16,12,34,20.00
2014,09,16,12,35,20.00
2014,09,16,12,36,20.00
2014,09,16,12,37,20.00
2014,09,16,12,38,20.00
2014,09,16,12,39,19.90
2014,09,16,12,40,19.90
2014,09,16,12,41,20.00
2014,09,16,12,42,20.00
2014,09,16,12,43,20.00
2014,09,16,12,44,20.00
2014,09,16,12,45,20.00
2014,09,16,12,46,19.90
2014,09,16,12,47,19.90
2014,09,16,12,48,19.80
2014,09,16,12,49,19.80
2014,09,16,12,50,19.70
2014,09,16,12,51,19.70
2014,09,16,12,52,19.60
2014,09,16,12,53,19.50
2014,09,16,12,54,19.40
2014,09,16,12,55,19.40
2014,09,16,12,56,19.40
2014,09,16,12,57,19.40
2014,09,16,12,58,19.40
2014,09,16,12,59,19.50
2014,09,16,13,00,19.60
2014,09,16,13,01,19.60
2014,09,16,13,02,19.60
2014,09,16,13,03,19.60
2014,09,16,13,04,19.50
2014,09,16,13,05,19.60
2014,09,16,13,06,19.60
2014,09,16,13,07,19.60
2014,09,16,13,08,19.70
2014,09,16,13,09,19.80
2014,09,16,13,10,19.90
2014,09,16,13,11,19.90
2014,09,16,13,12,20.00
2014,09,16,13,13,20.00
2014,09,16,13,14,20.10
2014,09,16,13,15,20.20
2014,09,16,13,16,20.20
2014,09,16,13,17,20.30
2014,09,16,13,18,20.30
2014,09,16,13,19,20.40
2014,09,16,13,20,20.40
2014,09,16,13,21,20.40
2014,09,16,13,22,20.40
2014,09,16,13,23,20.40
2014,09,16,13,24,20.30
2014,09,16,13,25,20.30
2014,09,16,13,26,20.30
2014,09,16,13,27,20.20
2014,09,16,13,28,20.20
2014,09,16,13,29,20.10
2014,09,16,13,30,20.10
2014,09,16,13,31,20.00
2014,09,16,13,32,20.00
2014,09,16,13,33,19.90
2014,09,16,13,34,19.80
2014,09,16,13,35,19.80
2014,09,16,13,36,19.80
2014,09,16,13,37,19.80
2014,09,16,13,38,19.80
2014,09,16,13,39,19.80
2014,09,16,13,40,19.90
2014,09,16,13,41,20.00
2014,09,16,13,42,20.00
2014,09,16,13,43,20.00
2014,09,16,13,44,20.10
2014,09,16,13,45,20.20
2014,09,16,13,46,20.30
2014,09,16,13,47,20.30
2014,09,16,13,48,20.30
2014,09,16,13,49,20.40
2014,09,16,13,50,20.50
2014,09,16,13,51,20.60
2014,09,16,13,52,20.70
2014,09,16,13,53,20.70
2014,09,16,13,54,20.80
2014,09,16,13,55,20.90
2014,09,16,13,56,21.00
2014,09,16,13,57,21.10
2014,09,16,13,58,21.10
2014,09,16,13,59,21.10
2014,09,16,14,00,21.10
2014,09,16,14,01,21.00
2014,09,16,14,02,21.00
2014,09,16,14,03,20.90
2014,09,16,14,04,20.90
2014,09,16,14,05,20.80
2014,09,16,14,06,20.80
2014,09,16,14,07,20.80
2014,09,16,14,08,20.80
2014,09,16,14,09,20.90
2014,09,16,14,10,20.90
2014,09,16,14,11,21.00
2014,09,16,14,12,21.00
2014,09,16,14,13,21.00
2014,09,16,14,14,21.10
2014,09,16,14,15,21.10
2014,09,16,14,16,21.10
2014,09,16,14,17,21.00
2014,09,16,14,18,21.10
2014,09,16,14,19,21.10
2014,09,16,14,20,21.00
2014,09,16,14,21,20.90
2014,09,16,14,22,20.90
2014,09,16,14,23,20.90
2014,09,16,14,24,20.90
2014,09,16,14,25,20.90
2014,09,16,14,26,20.80
2014,09,16,14,27,20.80
2014,09,16,14,28,20.80
2014,09,16,14,29,20.80
2014,09,16,14,30,20.80
2014,09,16,14,31,20.70
2014,09,16,14,32,20.70
2014,09,16,14,33,20.70
2014,09,16,14,34,20.70
2014,09,16,14,35,20.60
2014,09,16,14,36,20.60
2014,09,16,14,37,20.60
2014,09,16,14,38,20.50
2014,09,16,14,39,20.50
2014,09,16,14,40,20.40
2014,09,16,14,41,20.40
2014,09,16,14,42,20.40
2014,09,16,14,43,20.40
2014,09,16,14,44,20.40
2014,09,16,14,45,20.40
2014,09,16,14,46,20.40
2014,09,16,14,47,20.40
2014,09,16,14,48,20.40
2014,09,16,14,49,20.40
2014,09,16,14,50,20.40
2014,09,16,14,51,20.40
2014,09,16,14,52,20.40
2014,09,16,14,53,20.40
2014,09,16,14,54,20.50
2014,09,16,14,55,20.60
2014,09,16,14,56,20.60
2014,09,16,14,57,20.70
2014,09,16,14,58,20.70
2014,09,16,14,59,20.80
2014,09,16,15,00,20.80
2014,09,16,15,01,20.80
2014,09,16,15,02,20.90
2014,09,16,15,03,20.80
2014,09,16,15,04,20.80
2014,09,16,15,05,20.80
2014,09,16,15,06,20.80
2014,09,16,15,07,20.80
2014,09,16,15,08,20.90
2014,09,16,15,09,20.90
2014,09,16,15,10,21.00
2014,09,16,15,11,21.00
2014,09,16,15,12,21.10
2014,09,16,15,13,21.00
2014,09,16,15,14,21.00
2014,09,16,15,15,21.00
2014,09,16,15,16,20.90
2014,09,16,15,17,20.90
2014,09,16,15,18,20.80
2014,09,16,15,19,20.80
2014,09,16,15,20,20.80
2014,09,16,15,21,20.70
2014,09,16,15,22,20.70
2014,09,16,15,23,20.80
2014,09,16,15,24,20.80
2014,09,16,15,25,20.90
2014,09,16,15,26,21.00
2014,09,16,15,27,21.00
2014,09,16,15,28,21.10
2014,09,16,15,29,21.20
2014,09,16,15,30,21.20
2014,09,16,15,31,21.20
2014,09,16,15,32,21.10
2014,09,16,15,33,21.10
2014,09,16,15,34,21.10
2014,09,16,15,35,21.10
2014,09,16,15,36,21.10
2014,09,16,15,37,21.10
2014,09,16,15,38,21.10
2014,09,16,15,39,21.10
2014,09,16,15,40,21.10
2014,09,16,15,41,21.00
2014,09,16,15,42,21.00
2014,09,16,15,43,20.90
2014,09,16,15,44,20.90
2014,09,16,15,45,20.90
2014,09,16,15,46,20.90
2014,09,16,15,47,20.90
2014,09,16,15,48,20.90
2014,09,16,15,49,20.90
2014,09,16,15,50,21.00
2014,09,16,15,51,21.10
2014,09,16,15,52,21.20
2014,09,16,15,53,21.20
2014,09,16,15,54,21.20
2014,09,16,15,55,21.20
2014,09,16,15,56,21.10
2014,09,16,15,57,21.00
2014,09,16,15,58,20.90
2014,09,16,15,59,20.80
2014,09,16,16,00,20.80
2014,09,16,16,01,20.70
2014,09,16,16,02,20.70
2014,09,16,16,03,20.70
2014,09,16,16,04,20.60
2014,09,16,16,05,20.60
2014,09,16,16,06,20.60
2014,09,16,16,07,20.50
2014,09,16,16,08,20.40
2014,09,16,16,09,20.40
2014,09,16,16,10,20.30
2014,09,16,16,11,20.30
2014,09,16,16,12,20.30
2014,09,16,16,13,20.30
2014,09,16,16,14,20.30
2014,09,16,16,15,20.30
2014,09,16,16,16,20.30
2014,09,16,16,17,20.30
2014,09,16,16,18,20.30
2014,09,16,16,19,20.40
2014,09,16,16,20,20.40
2014,09,16,16,21,20.40
2014,09,16,16,22,20.40
2014,09,16,16,23,20.40
2014,09,16,16,24,20.30
2014,09,16,16,25,20.30
2014,09,16,16,26,20.30
2014,09,16,16,27,20.30
2014,09,16,16,28,20.40
2014,09,16,16,29,20.40
2014,09,16,16,30,20.40
2014,09,16,16,31,20.40
2014,09,16,16,32,20.30
2014,09,16,16,33,20.30
2014,09,16,16,34,20.30
2014,09,16,16,35,20.20
2014,09,16,16,36,20.20
2014,09,16,16,37,20.20
2014,09,16,16,38,20.20
2014,09,16,16,39,20.20
2014,09,16,16,40,20.20
2014,09,16,16,41,20.20
2014,09,16,16,42,20.20
2014,09,16,16,43,20.20
2014,09,16,16,44,20.20
2014,09,16,16,45,20.20
2014,09,16,16,46,20.20
2014,09,16,16,47,20.20
2014,09,16,16,48,20.20
2014,09,16,16,49,20.30
2014,09,16,16,50,20.30
2014,09,16,16,51,20.30
2014,09,16,16,52,20.30
2014,09,16,16,53,20.40
2014,09,16,16,54,20.40
2014,09,16,16,55,20.40
2014,09,16,16,56,20.40
2014,09,16,16,57,20.40
2014,09,16,16,58,20.40
2014,09,16,16,59,20.30
2014,09,16,17,00,20.30
2014,09,16,17,01,20.20
2014,09,16,17,02,20.20
2014,09,16,17,03,20.20
2014,09,16,17,04,20.20
2014,09,16,17,05,20.20
2014,09,16,17,06,20.10
2014,09,16,17,07,20.10
2014,09,16,17,08,20.10
2014,09,16,17,09,20.00
2014,09,16,17,10,20.00
2014,09,16,17,11,19.90
2014,09,16,17,12,19.90
2014,09,16,17,13,19.90
2014,09,16,17,14,19.90
2014,09,16,17,15,19.90
2014,09,16,17,16,19.90
2014,09,16,17,17,19.80
2014,09,16,17,18,19.80
2014,09,16,17,19,19.80
2014,09,16,17,20,19.80
2014,09,16,17,21,19.80
2014,09,16,17,22,19.70